Weather reports worldwide

Advertisment
Schleswig-Jagel, Germany (10037): temperature & dewpoint: 20.09.2020 13:00:00 - 26.09.2020 13:00:00 (CEST)Schleswig-Jagel, Germany (10037): wind speed & gusts: 20.09.2020 13:00:00 - 26.09.2020 13:00:00 (CEST)Schleswig-Jagel, Germany (10037): wind direction: 20.09.2020 13:00:00 - 26.09.2020 13:00:00 (CEST)Schleswig-Jagel, Germany (10037): reduced air pressure: 20.09.2020 13:00:00 - 26.09.2020 13:00:00 (CEST)Schleswig-Jagel, Germany (10037): visibility: 20.09.2020 13:00:00 - 26.09.2020 13:00:00 (CEST)
Date & Time tt [°C] td [°C] ff [km/h] ff [kn] fx [km/h] fx [kn] dd ppp [hPa] vv [km]
26.09.2020 13:00:00 14,2 8,1 11 6 - - NNW 998,5 75
26.09.2020 12:00:00 13,8 8,1 11 6 - - WNW 998,5 75
26.09.2020 11:00:00 11,3 7,8 7 4 - - N 998,1 45
26.09.2020 10:00:00 9,4 7,3 4 2 - - SSE 997,9 35
26.09.2020 09:00:00 7,6 5,7 0 0 - - N 997,5 30
26.09.2020 08:00:00 3,9 3,0 4 2 - - ESE 997,4 75
26.09.2020 07:00:00 4,0 3,4 7 4 - - SSE 997,4 75
26.09.2020 06:00:00 3,6 3,1 4 2 - - SE 996,8 75
26.09.2020 05:00:00 3,5 3,0 7 4 - - S 996,9 75
26.09.2020 04:00:00 3,8 3,2 4 2 - - E 996,5 75
26.09.2020 03:00:00 4,2 3,6 4 2 - - SE 996,7 75
26.09.2020 02:00:00 5,0 4,2 4 2 - - SE 996,5 75
26.09.2020 01:00:00 4,6 3,7 4 2 - - SSE 996,4 45
26.09.2020 00:00:00 5,3 4,4 4 2 - - W 996,4 75
25.09.2020 23:00:00 5,9 4,7 4 2 - - WSW 996,6 4,9
25.09.2020 22:00:00 7,5 5,7 4 2 - - WSW 996,4 75
25.09.2020 21:00:00 8,6 6,0 4 2 - - WSW 996,5 75
25.09.2020 20:00:00 9,4 6,0 4 2 - - WNW 996,4 75
25.09.2020 19:00:00 12,2 6,9 11 6 - - W 996,3 75
25.09.2020 18:00:00 14,7 7,2 14 8 - - W 996,1 75
25.09.2020 17:00:00 15,4 6,9 18 10 - - W 996,0 75
25.09.2020 16:00:00 15,9 8,0 22 12 - - WSW 995,4 75
25.09.2020 15:00:00 15,3 8,8 18 10 - - WSW 995,7 75
25.09.2020 14:00:00 14,2 10,1 18 10 - - SW 995,9 75
25.09.2020 13:00:00 13,9 10,3 22 12 - - WSW 995,9 65
25.09.2020 12:00:00 12,8 11,1 11 6 - - WSW 995,9 13
25.09.2020 11:00:00 13,0 11,7 7 4 - - S 995,8 16
25.09.2020 10:00:00 12,7 11,4 8 4 - - SE 995,1 9
25.09.2020 09:00:00 13,5 10,1 14 8 - - SE 995,3 27
25.09.2020 08:00:00 13,6 9,6 14 8 - - SE 995,0 27
25.09.2020 07:00:00 13,7 8,8 14 8 - - SE 995,2 27
25.09.2020 06:00:00 13,7 8,4 14 8 - - ESE 995,5 27
25.09.2020 05:00:00 13,0 7,7 11 6 - - E 996,1 60
25.09.2020 04:00:00 10,8 7,1 11 6 - - E 997,1 50
25.09.2020 03:00:00 11,9 7,0 7 4 - - E 998,2 45
25.09.2020 02:00:00 11,0 7,0 11 6 - - E 999,1 50
25.09.2020 01:00:00 11,1 6,9 11 6 - - ESE 999,5 45
25.09.2020 00:00:00 11,7 7,2 11 6 - - SE 1000,4 40
24.09.2020 23:00:00 11,8 7,1 11 6 - - SE 1000,6 45
24.09.2020 22:00:00 12,7 7,0 14 8 - - SSE 1001,1 45
24.09.2020 21:00:00 13,1 7,1 11 6 - - SSE 1001,5 50
24.09.2020 20:00:00 13,8 7,0 11 6 - - SSE 1001,8 40
24.09.2020 19:00:00 15,4 7,0 11 6 - - S 1001,9 75
24.09.2020 18:00:00 16,3 6,7 16 9 - - S 1001,7 10
24.09.2020 17:00:00 17,0 6,7 22 12 - - SSW 1002,0 45
24.09.2020 16:00:00 16,8 7,1 29 16 - - SW 1002,2 45
24.09.2020 15:00:00 16,9 6,8 32 18 47 25 SW 1002,0 30
24.09.2020 14:00:00 16,7 8,0 32 18 - - SW 1001,7 30
24.09.2020 13:00:00 16,6 9,4 36 19 50 27 SW 1001,1 30
24.09.2020 12:00:00 16,3 9,8 36 19 54 29 SW 1000,6 30
24.09.2020 11:00:00 16,2 10,7 36 19 - - SW 999,7 30
24.09.2020 10:00:00 15,3 11,1 32 18 47 25 SW 998,7 25
24.09.2020 09:00:00 14,9 11,5 29 16 61 33 SW 997,9 25
24.09.2020 08:00:00 15,2 12,9 32 18 - - SW 996,5 20
24.09.2020 07:00:00 14,9 12,8 18 10 - - S 996,0 15
24.09.2020 06:00:00 15,0 12,9 18 10 - - SSW 996,1 15
24.09.2020 05:00:00 15,7 11,3 18 10 - - S 996,0 50
24.09.2020 04:00:00 15,5 11,7 18 10 - - SSE 996,4 40
24.09.2020 03:00:00 14,9 11,5 14 8 - - SSE 997,4 30
24.09.2020 02:00:00 15,0 11,3 11 6 - - SSE 998,5 29
24.09.2020 01:00:00 15,6 11,8 11 6 - - SSE 999,4 35
24.09.2020 00:00:00 15,6 12,0 7 4 - - S 1000,1 30
23.09.2020 23:00:00 17,0 12,9 4 2 - - N 1000,5 21
23.09.2020 22:00:00 17,5 12,5 11 6 - - SSE 1000,7 35
23.09.2020 21:00:00 17,1 13,4 11 6 - - SSE 1000,8 30
23.09.2020 20:00:00 17,4 13,8 11 6 - - SSE 1001,1 28
23.09.2020 19:00:00 18,9 14,2 7 4 - - SSE 1001,2 35
23.09.2020 18:00:00 19,5 13,8 11 6 - - SW 1001,9 40
23.09.2020 17:00:00 20,3 13,7 18 10 - - SW 1002,3 75
23.09.2020 16:00:00 20,9 13,8 25 14 - - SW 1002,6 14
23.09.2020 15:00:00 21,1 14,4 22 12 - - WSW 1002,8 14
23.09.2020 14:00:00 20,6 13,1 25 14 - - SW 1002,9 12
23.09.2020 13:00:00 20,3 12,1 25 14 - - SW 1003,2 9
23.09.2020 12:00:00 19,3 12,2 18 10 - - SW 1003,3 13
23.09.2020 11:00:00 17,9 11,3 14 8 - - S 1003,4 12
23.09.2020 10:00:00 14,5 11,8 7 4 - - S 1003,6 8
23.09.2020 09:00:00 10,5 9,4 7 4 - - SE 1003,5 3,0
23.09.2020 08:00:00 6,4 6,0 4 2 - - SE 1003,8 0,9
23.09.2020 07:00:00 5,6 5,1 4 2 - - WNW 1003,7 0,8
23.09.2020 06:00:00 8,2 7,9 4 2 - - SSE 1003,7 4,9
23.09.2020 05:00:00 9,4 9,1 4 2 - - SE 1003,9 1,7
23.09.2020 04:00:00 8,7 8,4 4 2 - - SE 1004,3 3,2
23.09.2020 03:00:00 8,6 8,3 4 2 - - SE 1004,8 0,1
23.09.2020 02:00:00 9,5 9,1 4 2 - - SE 1005,3 6
23.09.2020 01:00:00 8,9 8,3 4 2 - - SSE 1005,9 4,7
23.09.2020 00:00:00 10,1 9,2 4 2 - - SE 1006,2 6
22.09.2020 23:00:00 11,0 9,4 0 0 - - N 1006,5 6
22.09.2020 22:00:00 12,2 10,3 0 0 - - N 1006,8 6
22.09.2020 21:00:00 14,3 11,7 7 4 - - WNW 1007,0 5
22.09.2020 20:00:00 16,0 11,2 4 2 - - WNW 1007,2 6
22.09.2020 19:00:00 18,9 12,2 7 4 - - W 1007,3 7
22.09.2020 18:00:00 21,2 11,1 7 4 - - SW 1007,4 8
22.09.2020 17:00:00 22,2 11,3 7 4 - - WSW 1008,1 25
22.09.2020 16:00:00 22,0 10,1 7 4 - - WSW 1008,8 25
22.09.2020 15:00:00 21,7 10,6 11 6 - - WNW 1009,2 25
22.09.2020 14:00:00 21,7 11,0 7 4 - - WNW 1009,7 20
22.09.2020 13:00:00 21,0 11,0 7 4 - - N 1010,2 15
22.09.2020 12:00:00 20,5 11,4 4 2 - - N 1010,5 15
22.09.2020 11:00:00 17,9 11,2 4 2 - - N 1011,2 15
22.09.2020 10:00:00 15,0 11,0 4 2 - - N 1011,2 12
22.09.2020 09:00:00 11,0 9,5 4 2 - - SE 1011,3 8
22.09.2020 08:00:00 7,2 6,6 2 1 - - ESE 1011,5 1,6
22.09.2020 07:00:00 5,9 5,2 4 2 - - ESE 1011,5 3,0
22.09.2020 06:00:00 7,3 6,9 4 2 - - SE 1011,9 6
22.09.2020 05:00:00 7,3 6,6 4 2 - - N 1012,2 7
22.09.2020 04:00:00 7,7 7,0 4 2 - - NE 1013,0 8
22.09.2020 03:00:00 8,0 7,5 4 2 - - ENE 1013,3 9
22.09.2020 02:00:00 8,4 8,0 4 2 - - E 1013,6 1,2
22.09.2020 01:00:00 9,5 9,0 4 2 - - E 1014,2 3,5
22.09.2020 00:00:00 9,7 8,9 7 4 - - ENE 1014,8 7
21.09.2020 23:00:00 9,8 8,7 4 2 - - NE 1015,3 9
21.09.2020 22:00:00 10,2 8,4 7 4 - - NNE 1015,4 9
21.09.2020 21:00:00 12,2 9,2 4 2 - - NNE 1015,5 8
21.09.2020 20:00:00 16,1 9,9 7 4 - - E 1015,4 9
21.09.2020 19:00:00 19,6 9,0 4 2 - - WNW 1015,6 10
21.09.2020 18:00:00 21,2 7,9 7 4 - - W 1015,9 30
21.09.2020 17:00:00 21,6 7,1 7 4 - - N 1016,3 30
21.09.2020 16:00:00 22,1 6,8 4 2 - - N 1016,8 30
21.09.2020 15:00:00 21,8 7,9 7 4 - - SW 1017,1 20
21.09.2020 14:00:00 21,0 8,7 11 6 - - SSW 1017,7 20
21.09.2020 13:00:00 19,4 8,9 11 6 - - SSE 1018,3 12
21.09.2020 12:00:00 17,3 12,4 4 2 - - E 1018,6 10
21.09.2020 11:00:00 14,6 14,2 7 4 - - E 1018,7 9
21.09.2020 10:00:00 13,7 13,5 11 6 - - E 1019,1 1,3
21.09.2020 09:00:00 13,0 12,8 11 6 - - ENE 1019,2 0,1
21.09.2020 08:00:00 12,4 12,3 11 6 - - E 1019,4 0,1
21.09.2020 07:00:00 11,5 11,3 14 8 - - ENE 1019,7 0,1
21.09.2020 06:00:00 10,2 10,0 11 6 - - NE 1019,9 -
21.09.2020 05:00:00 10,5 10,3 11 6 - - NNE 1020,0 -
21.09.2020 04:00:00 8,9 8,6 7 4 - - ENE 1019,8 -
21.09.2020 03:00:00 8,0 7,7 4 2 - - NNE 1020,3 -
21.09.2020 02:00:00 - - - - - - - - -
21.09.2020 01:00:00 10,3 10,0 7 4 - - NE 1020,8 -
21.09.2020 00:00:00 9,2 8,6 11 6 - - NE 1021,1 0,9
20.09.2020 23:00:00 9,8 8,9 11 6 - - NE 1020,9 8
20.09.2020 22:00:00 9,8 8,1 7 4 - - NE 1021,2 9
20.09.2020 21:00:00 9,8 7,8 11 6 - - NNE 1021,2 7
20.09.2020 20:00:00 13,5 9,3 7 4 - - E 1020,5 -
20.09.2020 19:00:00 15,1 9,5 7 4 - - ENE 1020,4 10
20.09.2020 18:00:00 17,1 9,4 18 10 - - ENE 1020,7 11
20.09.2020 17:00:00 18,1 9,4 18 10 - - NE 1020,8 13
20.09.2020 16:00:00 18,6 8,0 22 12 - - NE 1021,0 15
20.09.2020 15:00:00 18,9 7,8 14 8 - - ENE 1021,0 14
20.09.2020 14:00:00 18,7 7,5 14 8 - - ENE 1021,3 17
20.09.2020 13:00:00 18,6 6,3 18 10 - - E 1021,3 14

tt = temperature
td = dewpoint
ff = wind speed
fx = gusts
dd = wind direction
ppp = reduced air pressure
vv = visibility

Next stations